SCP
0 0 0 0 -0 -0 -0 -0 -0 -0 -0 0 0 0 0 0 0 0 0 0 0 0 0 0 0 0 0 0 0 0 0 0 0 0 0 0 0 0 0 0 0 0 0
0 0 0 0 -0 -0 -0 -0 -0 -0 -0 -0 0 0 0 0 0 0 0 0 0 0 0 0 0 0 0 0 0 0 0 0 0 0 0 0 0 0 0 0 0 0 0
0 0 0 0 0 0 0 0 0 0 0 0 -0 -0 -0 0 0 0 0 0 0 0 0 0 0 0 0 0 0 0 0 0 0 0 -0 0 0 0 0 0 0 0 0
0 0 0 0 0 0 0 0 0 0 0 0 -0 -0 0 0 0 0 0 0 0 0 0 0 0 0 0 0 0 -0 0 0 0 0 0 -0 0 0 0 0 0 0 0
0 0 0 0 0 0 0 0 0 0 0 -0 0 -0 -0 -0 0 0 0 0 0 0 0 0 0 0 0 0 0 0 0 0 0 0 0 0 0 0 0 0 0 0 0
0 0 0 0 0 0 0 0 0 0 0 0 -0 -0 -0 0 0 0 0 0 0 0 0 0 0 0 0 0 0 0 0 0 0 0 0 0 0 0 0 0 0 0 0
0 0 0 0 0 0 0 0 0 0 0 0 -0 -0 -0 0 0 0 0 0 0 0 0 0 0 0 0 0 0 0 0 0 0 0 0 -0 0 0 0 0 0 0 0
0 0 0 0 0 0 0 0 0 0 0 -0 -0 -0 0 0 0 0 0 0 0 0 0 0 0 0 0 0 0 0 0 0 0 0 0 0 0 0 0 0 0 0 0
0 0 0 0 0 0 0 0 0 0 0 0 0 0 0 0 0 0 0 0 0 0 0 0 0 0 0 0 0 0 0 0 0 0 0 0 0 0 0 0 0 0 0
0 0 0 0 0 0 0 0 0 0 0 0 0 0 0 0 0 0 0 0 0 0 0 0 0 0 0 0 0 0 0 0 0 0 0 0 0 0 0 0 0 0 0
0 0 0 0 0 0 0 0 0 0 0 0 0 0 0 0 0 0 0 0 0 0 0 0 0 0 0 0 0 0 0 0 0 0 0 0 0 0 0 0 0 0 0
0 0 0 0 0 0 0 0 0 0 0 0 0 0 0 0 0 0 0 0 0 0 0 0 0 0 0 0 0 0 0 0 0 0 0 0 0 0 0 0 0 0 0
0 0 0 0 0 0 0 0 0 0 0 0 0 0 0 0 0 0 0 0 0 0 0 0 0 0 0 0 0 0 0 0 0 0 0 0 0 0 0 0 0 0 0
0 0 0 0 0 0 0 0 0 0 0 0 0 0 0 0 0 0 0 0 0 0 0 0 0 0 0 0 0 0 0 0 0 0 0 0 0 0 0 0 0 0 0
0 0 0 0 0 0 0 0 0 0 0 0 0 0 0 0 0 0 0 0 0 0 0 0 0 0 0 0 0 0 0 0 0 0 0 0 0 0 0 0 0 0 0
0 0 0 0 0 0 0 0 0 0 0 0 0 0 0 0 0 0 0 0 0 -0 -0 0 0 0 0 0 0 0 0 0 0 0 0 0 0 0 0 0 0 0 0
0 0 0 0 0 0 0 0 0 0 0 0 0 0 0 0 0 0 0 0 -0 -0 0 0 0 0 0 -0 0 0 0 0 0 0 0 0 0 0 0 0 0 0 0
0 0 0 0 0 0 0 0 0 0 0 0 0 0 0 0 0 0 0 0 0 0 0 0 0 0 0 -0 -0 -0 0 0 0 0 0 0 0 0 0 0 0 0 0
0 0 0 0 0 0 0 0 0 0 -0 -0 -0 0 0 0 0 0 0 0 0 0 0 0 0 -0 -0 -0 0 0 0 0 0 0 0 0 0 0 0 0 0 0 0
0 0 0 0 0 0 0 0 0 0 -0 -0 -0 0 0 0 0 0 0 0 0 0 0 0 -0 -0 -0 -0 -0 0 0 -0 0 0 0 0 0 0 0 0 0 0 0
0 0 0 0 0 0 0 0 0 0 0 -0 0 0 0 0 0 0 0 0 -0 -0 -0 -0 -0 -0 -0 -0 -0 0 0 0 -0 -0 0 0 0 0 0 0 0 0 0
0 0 0 0 0 0 0 0 0 0 0 0 0 0 0 0 0 0 0 0 0 -0 -0 -0 -0 -0 -0 -0 -0 0 0 0 0 0 0 0 0 0 0 0 0 0 0
0 0 0 0 0 0 0 0 0 0 0 0 0 0 -0 -0 -0 -0 0 0 0 0 -0 -0 -0 -0 -0 -0 -0 -0 -0 0 0 0 0 0 0 0 0 0 0 0 0
0 0 0 0 0 0 0 0 0 0 0 0 0 0 0 0 -0 -0 0 0 0 0 -0 -0 -0 -0 -0 -0 -0 -0 0 0 0 0 0 0 0 0 0 0 -0 -0 -0
0 0 0 0 0 0 0 0 0 0 0 0 0 0 0 0 0 0 0 0 0 -0 -0 -0 -0 -0 -0 -0 -0 -0 -0 -0 0 0 0 0 0 0 0 -0 0 0 0
0 0 0 0 0 0 0 0 0 0 0 0 0 0 0 0 0 0 0 0 0 0 0 -0 -0 -0 -0 -0 -0 -0 -0 -0 0 0 0 0 0 0 0 -0 0 0 0
Wind_Speed_500mb
5 15 17 26 30 34 38 44 44 42 39 35 33 29 25 22 20 21 21 25 29 28 17 18 22 16 14 20 22 22 23 23 27 31 34 37 39 36 40 41 39 28 40
3 5 13 20 25 26 30 35 39 42 43 41 42 43 36 27 23 21 19 20 23 24 22 22 23 19 17 16 17 16 19 21 26 31 36 38 37 32 34 40 39 40 37
9 3 9 16 20 24 27 28 32 38 41 42 48 48 47 44 32 26 26 26 28 30 33 37 37 37 34 23 24 27 24 21 23 28 34 34 33 30 36 31 35 37 36
9 5 11 15 20 25 27 26 27 33 36 34 36 46 56 52 30 28 28 28 26 28 32 32 34 35 34 29 36 37 32 25 23 25 25 23 25 21 26 27 27 31 39
22 19 16 19 30 33 33 26 25 30 29 33 42 52 57 44 28 27 25 24 24 24 28 30 26 23 22 21 23 26 27 26 22 20 19 25 23 23 20 23 28 28 25
29 33 38 43 40 31 29 18 25 24 27 35 44 53 51 43 27 24 25 22 18 24 29 29 28 23 20 16 17 16 21 29 24 17 20 20 23 21 21 25 27 26 27
34 29 21 25 15 15 20 22 24 26 31 37 41 48 50 44 33 26 24 23 23 20 27 26 28 27 26 23 16 14 17 22 26 31 44 42 41 29 27 26 28 28 28
17 20 16 21 31 38 33 35 40 43 41 43 43 45 41 36 34 27 21 23 25 27 28 25 23 27 29 27 23 16 14 14 14 16 20 24 30 35 35 40 37 38 39
17 29 25 27 31 35 41 44 46 51 45 35 34 39 30 26 23 28 23 22 23 25 26 26 24 24 25 24 24 26 23 21 24 27 31 34 36 37 37 44 44 40 44
17 24 31 36 38 45 49 52 52 35 26 29 32 30 22 22 26 30 31 31 30 29 28 29 31 32 30 28 31 32 35 35 34 32 35 36 31 26 29 36 36 44 45
22 31 37 43 50 52 50 39 31 26 23 25 25 23 26 29 30 32 33 36 37 39 40 41 37 36 36 36 41 42 43 42 38 43 47 38 26 22 23 20 26 29 38
34 40 45 45 40 36 34 30 27 25 23 27 31 33 33 32 32 31 33 35 38 41 41 44 48 49 49 48 48 47 47 47 48 50 47 36 28 22 15 16 15 14 14
36 32 29 32 36 38 37 34 30 26 34 36 37 37 32 35 29 26 25 26 28 32 32 34 37 41 44 44 45 48 52 48 39 35 34 31 28 23 19 17 17 18 16
27 29 32 41 40 36 30 29 29 31 34 34 31 32 34 29 27 30 34 32 27 29 36 27 24 19 16 13 13 12 10 12 14 15 14 14 16 18 17 17 16 14 14
27 29 38 34 33 28 24 24 23 27 28 29 30 32 34 33 33 35 42 39 28 29 26 23 22 23 20 21 22 18 16 18 21 23 25 21 16 12 10 11 15 17 18
23 32 32 29 26 25 25 20 23 29 24 24 31 30 29 32 34 22 20 18 25 28 25 20 21 24 25 24 23 25 26 24 24 26 28 29 26 24 26 21 22 23 25
26 30 26 26 24 24 24 24 22 20 23 25 27 30 35 28 24 15 5 18 23 24 22 25 29 28 31 34 34 32 29 24 26 27 28 27 27 28 32 31 27 26 28
21 18 18 22 25 27 33 22 23 28 34 37 32 34 36 18 10 9 10 12 19 21 22 24 29 34 38 38 35 35 35 32 29 29 29 28 28 29 31 33 34 36 37
12 9 14 21 21 23 27 26 29 36 37 34 34 27 22 12 11 15 13 16 18 19 20 24 32 38 43 44 43 43 42 39 36 32 28 31 35 39 41 43 44 42 43
11 15 15 19 17 17 20 24 25 35 42 40 29 29 33 26 24 22 18 17 17 16 19 21 31 41 49 52 49 47 46 39 38 35 34 36 37 35 37 36 36 37 37
13 16 18 17 15 12 16 17 19 29 34 44 42 42 40 38 35 21 17 16 18 23 14 21 31 41 52 52 48 48 44 38 37 33 34 34 33 35 36 43 48 54 54
16 18 19 19 10 16 17 14 15 19 23 27 30 29 30 29 32 30 28 26 21 24 18 22 34 47 49 47 48 47 43 37 33 34 33 35 40 41 43 47 51 53 53
17 21 10 8 15 21 19 14 9 12 14 18 21 24 29 30 28 27 25 24 20 21 24 33 44 43 43 42 43 43 43 40 35 37 34 38 39 39 41 48 52 49 54
18 15 10 6 16 23 26 26 11 9 20 22 22 28 31 30 28 25 23 23 24 27 34 39 40 41 42 42 41 39 40 41 38 33 36 41 43 44 47 52 53 53 58
12 10 8 12 17 20 25 27 18 13 23 26 27 28 30 30 27 26 24 25 29 31 33 36 38 40 41 42 42 42 41 38 37 39 40 42 45 47 48 51 55 59 58
9 8 11 15 15 17 23 24 24 20 23 25 26 29 30 29 29 28 28 28 30 31 32 34 37 39 41 43 44 43 43 42 40 39 42 44 44 43 47 50 54 58 55
Wind_Direction_500mb
46 12 24 23 27 26 27 26 25 25 24 17 9 357 344 338 334 336 333 305 293 283 290 331 351 358 320 309 302 299 296 290 285 291 287 285 281 274 273 260 253 266 264
286 56 31 14 14 18 15 15 16 20 20 14 9 9 5 346 334 322 325 327 326 319 314 295 305 327 339 334 327 311 309 309 300 304 301 294 291 288 275 263 259 246 243
155 27 9 358 356 356 351 353 357 359 2 5 3 359 359 352 336 318 314 314 319 315 314 315 306 295 302 324 314 317 311 307 307 305 307 307 296 286 281 276 269 244 226
214 320 327 342 339 330 325 324 332 341 347 349 351 350 344 340 325 317 307 310 316 329 333 321 314 307 299 299 287 300 307 296 305 308 316 329 331 319 295 301 284 264 239
255 274 310 317 309 309 306 298 307 325 333 338 340 338 338 338 323 309 303 309 319 331 338 337 325 322 312 281 285 276 272 287 291 303 335 341 335 339 331 314 307 297 266
261 282 284 289 297 301 304 287 302 312 318 323 328 335 335 331 319 306 302 300 310 317 325 329 331 317 319 322 277 297 293 274 276 293 293 309 325 335 330 327 332 331 296
265 273 265 270 289 302 300 297 307 310 315 320 327 328 324 322 317 310 303 305 297 301 306 315 326 318 316 321 307 288 298 307 299 290 283 284 297 308 308 309 308 305 305
261 250 260 291 303 302 307 313 314 314 318 323 327 331 330 321 323 329 315 299 294 298 296 294 306 319 329 319 311 288 281 301 315 321 320 309 294 288 290 281 283 291 290
299 303 306 313 318 313 314 316 318 311 309 315 326 333 332 328 329 325 326 326 315 310 303 287 292 302 314 320 305 297 294 294 294 302 305 301 294 287 282 276 272 266 274
315 315 322 320 318 319 317 321 321 307 306 312 316 320 319 315 313 308 313 315 315 313 312 309 296 291 295 300 310 312 308 304 301 297 306 300 293 280 277 269 264 254 252
312 316 317 317 318 319 322 321 327 322 309 311 314 320 320 310 306 305 308 307 305 305 300 298 297 294 291 288 295 298 301 301 304 306 317 312 293 283 296 263 252 254 251
312 313 316 321 330 333 330 329 329 329 324 321 318 313 319 319 315 310 307 307 307 305 301 295 290 287 285 282 282 286 293 294 297 304 306 300 293 287 265 241 249 258 282
312 321 329 335 331 327 324 324 323 328 328 325 326 327 330 332 329 330 328 327 327 324 322 312 302 298 295 290 286 281 283 288 293 295 295 289 283 281 259 257 262 264 261
334 334 334 331 327 327 328 324 325 333 332 336 336 334 332 325 328 328 329 325 332 328 334 341 339 358 354 334 296 291 316 311 307 304 308 309 305 282 281 272 270 283 275
332 331 332 334 338 345 345 333 333 333 338 339 329 325 324 322 321 326 327 329 330 338 333 326 337 338 327 336 333 332 327 316 302 297 303 304 306 301 285 276 282 288 292
324 331 334 336 340 346 341 333 333 333 330 337 334 332 330 322 326 311 328 1 20 7 357 7 12 13 14 5 2 355 353 345 328 320 309 302 299 296 283 279 277 278 281
323 330 331 338 345 351 345 341 348 0 1 351 338 336 338 343 339 322 339 22 12 10 15 21 17 16 10 3 359 355 349 337 332 337 337 327 324 312 297 287 286 284 274
314 333 12 19 22 24 19 15 358 350 342 339 341 334 333 346 3 20 16 3 16 13 12 24 26 10 0 354 348 342 338 341 337 329 322 322 325 321 316 312 310 306 296
338 6 6 357 358 7 14 7 4 355 344 337 334 340 9 11 333 7 14 23 27 13 19 21 15 9 3 360 356 352 347 341 336 328 331 322 322 315 312 311 307 302 298
31 0 356 355 1 0 3 5 14 24 20 17 17 25 27 26 12 21 43 30 15 359 357 6 7 0 354 353 351 349 346 345 341 337 333 325 319 316 319 321 322 318 310
13 352 335 331 337 347 11 2 14 15 25 36 36 52 37 33 26 24 31 17 7 350 357 3 355 348 343 345 348 348 348 347 349 342 340 336 326 317 311 313 316 313 303
354 353 353 353 2 345 322 338 12 35 23 19 18 19 27 34 23 25 22 19 3 1 7 348 343 342 344 348 348 348 347 343 346 347 343 341 332 324 320 314 312 311 312
352 349 4 24 8 4 14 355 332 10 8 357 2 7 3 1 359 359 2 6 11 354 346 338 340 345 349 351 351 349 350 351 348 347 341 337 337 331 326 318 316 312 313
347 344 350 319 354 4 359 359 353 332 360 2 358 356 355 357 358 356 350 345 341 337 337 341 347 350 353 354 354 356 357 353 346 337 333 332 332 328 323 325 326 318 309
354 2 10 17 354 355 1 8 13 354 354 357 358 2 4 4 3 1 358 353 352 352 351 354 355 357 359 359 0 2 359 355 351 348 341 329 324 323 325 323 327 328 324
312 359 345 345 352 355 5 10 11 5 1 1 2 2 5 9 13 14 14 14 12 10 9 6 5 4 4 4 5 3 2 1 359 354 346 343 335 331 333 332 333 336 334
Wind_Speed_850mb
5 15 17 26 30 34 38 44 44 42 39 35 33 29 25 22 20 21 21 25 29 28 17 18 22 16 14 20 22 22 23 23 27 31 34 37 39 36 40 41 39 28 40
3 5 13 20 25 26 30 35 39 42 43 41 42 43 36 27 23 21 19 20 23 24 22 22 23 19 17 16 17 16 19 21 26 31 36 38 37 32 34 40 39 40 37
9 3 9 16 20 24 27 28 32 38 41 42 48 48 47 44 32 26 26 26 28 30 33 37 37 37 34 23 24 27 24 21 23 28 34 34 33 30 36 31 35 37 36
9 5 11 15 20 25 27 26 27 33 36 34 36 46 56 52 30 28 28 28 26 28 32 32 34 35 34 29 36 37 32 25 23 25 25 23 25 21 26 27 27 31 39
22 19 16 19 30 33 33 26 25 30 29 33 42 52 57 44 28 27 25 24 24 24 28 30 26 23 22 21 23 26 27 26 22 20 19 25 23 23 20 23 28 28 25
29 33 38 43 40 31 29 18 25 24 27 35 44 53 51 43 27 24 25 22 18 24 29 29 28 23 20 16 17 16 21 29 24 17 20 20 23 21 21 25 27 26 27
34 29 21 25 15 15 20 22 24 26 31 37 41 48 50 44 33 26 24 23 23 20 27 26 28 27 26 23 16 14 17 22 26 31 44 42 41 29 27 26 28 28 28
17 20 16 21 31 38 33 35 40 43 41 43 43 45 41 36 34 27 21 23 25 27 28 25 23 27 29 27 23 16 14 14 14 16 20 24 30 35 35 40 37 38 39
17 29 25 27 31 35 41 44 46 51 45 35 34 39 30 26 23 28 23 22 23 25 26 26 24 24 25 24 24 26 23 21 24 27 31 34 36 37 37 44 44 40 44
17 24 31 36 38 45 49 52 52 35 26 29 32 30 22 22 26 30 31 31 30 29 28 29 31 32 30 28 31 32 35 35 34 32 35 36 31 26 29 36 36 44 45
22 31 37 43 50 52 50 39 31 26 23 25 25 23 26 29 30 32 33 36 37 39 40 41 37 36 36 36 41 42 43 42 38 43 47 38 26 22 23 20 26 29 38
34 40 45 45 40 36 34 30 27 25 23 27 31 33 33 32 32 31 33 35 38 41 41 44 48 49 49 48 48 47 47 47 48 50 47 36 28 22 15 16 15 14 14
36 32 29 32 36 38 37 34 30 26 34 36 37 37 32 35 29 26 25 26 28 32 32 34 37 41 44 44 45 48 52 48 39 35 34 31 28 23 19 17 17 18 16
27 29 32 41 40 36 30 29 29 31 34 34 31 32 34 29 27 30 34 32 27 29 36 27 24 19 16 13 13 12 10 12 14 15 14 14 16 18 17 17 16 14 14
27 29 38 34 33 28 24 24 23 27 28 29 30 32 34 33 33 35 42 39 28 29 26 23 22 23 20 21 22 18 16 18 21 23 25 21 16 12 10 11 15 17 18
23 32 32 29 26 25 25 20 23 29 24 24 31 30 29 32 34 22 20 18 25 28 25 20 21 24 25 24 23 25 26 24 24 26 28 29 26 24 26 21 22 23 25
26 30 26 26 24 24 24 24 22 20 23 25 27 30 35 28 24 15 5 18 23 24 22 25 29 28 31 34 34 32 29 24 26 27 28 27 27 28 32 31 27 26 28
21 18 18 22 25 27 33 22 23 28 34 37 32 34 36 18 10 9 10 12 19 21 22 24 29 34 38 38 35 35 35 32 29 29 29 28 28 29 31 33 34 36 37
12 9 14 21 21 23 27 26 29 36 37 34 34 27 22 12 11 15 13 16 18 19 20 24 32 38 43 44 43 43 42 39 36 32 28 31 35 39 41 43 44 42 43
11 15 15 19 17 17 20 24 25 35 42 40 29 29 33 26 24 22 18 17 17 16 19 21 31 41 49 52 49 47 46 39 38 35 34 36 37 35 37 36 36 37 37
13 16 18 17 15 12 16 17 19 29 34 44 42 42 40 38 35 21 17 16 18 23 14 21 31 41 52 52 48 48 44 38 37 33 34 34 33 35 36 43 48 54 54
16 18 19 19 10 16 17 14 15 19 23 27 30 29 30 29 32 30 28 26 21 24 18 22 34 47 49 47 48 47 43 37 33 34 33 35 40 41 43 47 51 53 53
17 21 10 8 15 21 19 14 9 12 14 18 21 24 29 30 28 27 25 24 20 21 24 33 44 43 43 42 43 43 43 40 35 37 34 38 39 39 41 48 52 49 54
18 15 10 6 16 23 26 26 11 9 20 22 22 28 31 30 28 25 23 23 24 27 34 39 40 41 42 42 41 39 40 41 38 33 36 41 43 44 47 52 53 53 58
12 10 8 12 17 20 25 27 18 13 23 26 27 28 30 30 27 26 24 25 29 31 33 36 38 40 41 42 42 42 41 38 37 39 40 42 45 47 48 51 55 59 58
9 8 11 15 15 17 23 24 24 20 23 25 26 29 30 29 29 28 28 28 30 31 32 34 37 39 41 43 44 43 43 42 40 39 42 44 44 43 47 50 54 58 55
Wind_Direction_850mb
46 12 24 23 27 26 27 26 25 25 24 17 9 357 344 338 334 336 333 305 293 283 290 331 351 358 320 309 302 299 296 290 285 291 287 285 281 274 273 260 253 266 264
286 56 31 14 14 18 15 15 16 20 20 14 9 9 5 346 334 322 325 327 326 319 314 295 305 327 339 334 327 311 309 309 300 304 301 294 291 288 275 263 259 246 243
155 27 9 358 356 356 351 353 357 359 2 5 3 359 359 352 336 318 314 314 319 315 314 315 306 295 302 324 314 317 311 307 307 305 307 307 296 286 281 276 269 244 226
214 320 327 342 339 330 325 324 332 341 347 349 351 350 344 340 325 317 307 310 316 329 333 321 314 307 299 299 287 300 307 296 305 308 316 329 331 319 295 301 284 264 239
255 274 310 317 309 309 306 298 307 325 333 338 340 338 338 338 323 309 303 309 319 331 338 337 325 322 312 281 285 276 272 287 291 303 335 341 335 339 331 314 307 297 266
261 282 284 289 297 301 304 287 302 312 318 323 328 335 335 331 319 306 302 300 310 317 325 329 331 317 319 322 277 297 293 274 276 293 293 309 325 335 330 327 332 331 296
265 273 265 270 289 302 300 297 307 310 315 320 327 328 324 322 317 310 303 305 297 301 306 315 326 318 316 321 307 288 298 307 299 290 283 284 297 308 308 309 308 305 305
261 250 260 291 303 302 307 313 314 314 318 323 327 331 330 321 323 329 315 299 294 298 296 294 306 319 329 319 311 288 281 301 315 321 320 309 294 288 290 281 283 291 290
299 303 306 313 318 313 314 316 318 311 309 315 326 333 332 328 329 325 326 326 315 310 303 287 292 302 314 320 305 297 294 294 294 302 305 301 294 287 282 276 272 266 274
315 315 322 320 318 319 317 321 321 307 306 312 316 320 319 315 313 308 313 315 315 313 312 309 296 291 295 300 310 312 308 304 301 297 306 300 293 280 277 269 264 254 252
312 316 317 317 318 319 322 321 327 322 309 311 314 320 320 310 306 305 308 307 305 305 300 298 297 294 291 288 295 298 301 301 304 306 317 312 293 283 296 263 252 254 251
312 313 316 321 330 333 330 329 329 329 324 321 318 313 319 319 315 310 307 307 307 305 301 295 290 287 285 282 282 286 293 294 297 304 306 300 293 287 265 241 249 258 282
312 321 329 335 331 327 324 324 323 328 328 325 326 327 330 332 329 330 328 327 327 324 322 312 302 298 295 290 286 281 283 288 293 295 295 289 283 281 259 257 262 264 261
334 334 334 331 327 327 328 324 325 333 332 336 336 334 332 325 328 328 329 325 332 328 334 341 339 358 354 334 296 291 316 311 307 304 308 309 305 282 281 272 270 283 275
332 331 332 334 338 345 345 333 333 333 338 339 329 325 324 322 321 326 327 329 330 338 333 326 337 338 327 336 333 332 327 316 302 297 303 304 306 301 285 276 282 288 292
324 331 334 336 340 346 341 333 333 333 330 337 334 332 330 322 326 311 328 1 20 7 357 7 12 13 14 5 2 355 353 345 328 320 309 302 299 296 283 279 277 278 281
323 330 331 338 345 351 345 341 348 0 1 351 338 336 338 343 339 322 339 22 12 10 15 21 17 16 10 3 359 355 349 337 332 337 337 327 324 312 297 287 286 284 274
314 333 12 19 22 24 19 15 358 350 342 339 341 334 333 346 3 20 16 3 16 13 12 24 26 10 0 354 348 342 338 341 337 329 322 322 325 321 316 312 310 306 296
338 6 6 357 358 7 14 7 4 355 344 337 334 340 9 11 333 7 14 23 27 13 19 21 15 9 3 360 356 352 347 341 336 328 331 322 322 315 312 311 307 302 298
31 0 356 355 1 0 3 5 14 24 20 17 17 25 27 26 12 21 43 30 15 359 357 6 7 0 354 353 351 349 346 345 341 337 333 325 319 316 319 321 322 318 310
13 352 335 331 337 347 11 2 14 15 25 36 36 52 37 33 26 24 31 17 7 350 357 3 355 348 343 345 348 348 348 347 349 342 340 336 326 317 311 313 316 313 303
354 353 353 353 2 345 322 338 12 35 23 19 18 19 27 34 23 25 22 19 3 1 7 348 343 342 344 348 348 348 347 343 346 347 343 341 332 324 320 314 312 311 312
352 349 4 24 8 4 14 355 332 10 8 357 2 7 3 1 359 359 2 6 11 354 346 338 340 345 349 351 351 349 350 351 348 347 341 337 337 331 326 318 316 312 313
347 344 350 319 354 4 359 359 353 332 360 2 358 356 355 357 358 356 350 345 341 337 337 341 347 350 353 354 354 356 357 353 346 337 333 332 332 328 323 325 326 318 309
354 2 10 17 354 355 1 8 13 354 354 357 358 2 4 4 3 1 358 353 352 352 351 354 355 357 359 359 0 2 359 355 351 348 341 329 324 323 325 323 327 328 324
312 359 345 345 352 355 5 10 11 5 1 1 2 2 5 9 13 14 14 14 12 10 9 6 5 4 4 4 5 3 2 1 359 354 346 343 335 331 333 332 333 336 334